Hourly Weather Stavropol'

Today, 5 August, Wednesday

Time Temperature Precipitation Wind Pressure Humidity
00:00 +17°C° 0 mm 2 mps 725 mmHg 48%
01:00 +17°C° 0 mm 2 mps 725 mmHg 49%
02:00 +16°C° 0 mm 2 mps 725 mmHg 51%
03:00 +16°C° 0 mm 2 mps 725 mmHg 54%
04:00 +16°C° 0 mm 2 mps 725 mmHg 56%
05:00 +16°C° 0 mm 1 mps 725 mmHg 59%
06:00 +16°C° 0 mm 1 mps 725 mmHg 61%
07:00 +18°C° 0 mm 2 mps 725 mmHg 55%
08:00 +20°C° 0 mm 2 mps 725 mmHg 49%
09:00 +23°C° 0 mm 2 mps 725 mmHg 42%
10:00 +25°C° 0 mm 2 mps 725 mmHg 38%
11:00 +26°C° 0 mm 3 mps 725 mmHg 34%
12:00 +27°C° 0 mm 3 mps 724 mmHg 30%
13:00 +27°C° 0 mm 3 mps 724 mmHg 32%
14:00 +28°C° 0 mm 4 mps 724 mmHg 33%
15:00 +29°C° 0 mm 4 mps 724 mmHg 35%
16:00 +28°C° 0 mm 3 mps 724 mmHg 39%
17:00 +28°C° 0 mm 3 mps 724 mmHg 43%
18:00 +27°C° 0 mm 3 mps 724 mmHg 47%
19:00 +26°C° 0 mm 2 mps 724 mmHg 51%
20:00 +24°C° 0 mm 2 mps 724 mmHg 55%
21:00 +21°C° 0 mm 2 mps 724 mmHg 59%
22:00 +22°C° 0 mm 1 mps 724 mmHg 61%
23:00 +21°C° 0 mm 1 mps 724 mmHg 63%

Tomorrow, 6 August, Thursday

Time Temperature Precipitation Wind Pressure Humidity
00:00 +21°C° 0 mm 1 mps 724 mmHg 66%
01:00 +20°C° 0 mm 1 mps 725 mmHg 69%
02:00 +20°C° 0 mm 1 mps 725 mmHg 71%
03:00 +19°C° 0 mm 1 mps 725 mmHg 74%
04:00 +17°C° 0 mm 0 mps 725 mmHg 75%
05:00 +17°C° 0 mm 0 mps 725 mmHg 75%
06:00 +18°C° 0 mm 0 mps 725 mmHg 75%
07:00 +22°C° 0 mm 1 mps 725 mmHg 68%
08:00 +24°C° 0 mm 1 mps 726 mmHg 60%
09:00 +26°C° 0 mm 2 mps 726 mmHg 53%
10:00 +27°C° 0 mm 2 mps 726 mmHg 49%
11:00 +29°C° 0 mm 3 mps 726 mmHg 45%
12:00 +30°C° 0 mm 3 mps 726 mmHg 41%
13:00 +31°C° 0 mm 3 mps 726 mmHg 40%
14:00 +31°C° 0 mm 3 mps 726 mmHg 39%
15:00 +31°C° 0 mm 3 mps 726 mmHg 38%
16:00 +31°C° 0 mm 2 mps 726 mmHg 40%
17:00 +30°C° 0 mm 2 mps 726 mmHg 42%
18:00 +30°C° 0 mm 1 mps 726 mmHg 45%
19:00 +28°C° 0 mm 1 mps 726 mmHg 46%
20:00 +27°C° 0 mm 1 mps 726 mmHg 48%
21:00 +26°C° 0 mm 1 mps 726 mmHg 50%
22:00 +25°C° 0 mm 1 mps 726 mmHg 51%
23:00 +25°C° 0 mm 1 mps 726 mmHg 53%

Day after tomorrow, 7 August, Friday

Time Temperature Precipitation Wind Pressure Humidity
00:00 +24°C° 0 mm 1 mps 726 mmHg 55%
01:00 +23°C° 0 mm 1 mps 726 mmHg 58%
02:00 +23°C° 0 mm 1 mps 726 mmHg 61%
03:00 +20°C° 0 mm 0 mps 726 mmHg 64%
04:00 +20°C° 0 mm 0 mps 726 mmHg 64%
05:00 +22°C° 0 mm 1 mps 726 mmHg 65%
06:00 +22°C° 0 mm 1 mps 726 mmHg 66%
07:00 +24°C° 0 mm 1 mps 726 mmHg 60%
08:00 +27°C° 0 mm 1 mps 727 mmHg 54%
09:00 +29°C° 0 mm 1 mps 727 mmHg 48%
10:00 +30°C° 0 mm 2 mps 727 mmHg 43%
11:00 +31°C° 0 mm 2 mps 727 mmHg 39%
12:00 +34°C° 0 mm 3 mps 727 mmHg 34%
13:00 +34°C° 0 mm 3 mps 726 mmHg 34%
14:00 +34°C° 0 mm 3 mps 726 mmHg 34%
15:00 +34°C° 0 mm 3 mps 726 mmHg 34%
16:00 +34°C° 0 mm 2 mps 726 mmHg 36%
17:00 +32°C° 0 mm 2 mps 726 mmHg 37%
18:00 +32°C° 0 mm 2 mps 726 mmHg 38%
19:00 +30°C° 0 mm 1 mps 726 mmHg 41%
20:00 +28°C° 0 mm 1 mps 726 mmHg 44%
21:00 +26°C° 0 mm 1 mps 726 mmHg 47%
22:00 +25°C° 0 mm 1 mps 725 mmHg 49%
23:00 +25°C° 0 mm 1 mps 725 mmHg 51%

8 August, Saturday

Time Temperature Precipitation Wind Pressure Humidity
00:00 +24°C° 0 mm 1 mps 725 mmHg 54%
01:00 +23°C° 0 mm 1 mps 725 mmHg 56%
02:00 +23°C° 0 mm 1 mps 725 mmHg 58%
03:00 +23°C° 0 mm 1 mps 725 mmHg 60%
04:00 +22°C° 0 mm 1 mps 725 mmHg 62%
05:00 +22°C° 0 mm 1 mps 725 mmHg 64%
06:00 +22°C° 0 mm 1 mps 725 mmHg 66%
07:00 +24°C° 0 mm 1 mps 725 mmHg 59%
08:00 +27°C° 0 mm 2 mps 725 mmHg 52%
09:00 +29°C° 0 mm 2 mps 725 mmHg 45%
10:00 +30°C° 0 mm 2 mps 724 mmHg 42%
11:00 +31°C° 0 mm 3 mps 724 mmHg 38%
12:00 +33°C° 0 mm 3 mps 724 mmHg 35%
13:00 +34°C° 0 mm 3 mps 724 mmHg 34%
14:00 +34°C° 0 mm 3 mps 723 mmHg 33%
15:00 +34°C° 0 mm 3 mps 723 mmHg 32%
16:00 +33°C° 0 mm 3 mps 723 mmHg 36%
17:00 +31°C° 0 mm 3 mps 723 mmHg 40%
18:00 +32°C° 0 mm 4 mps 723 mmHg 43%
19:00 +29°C° 0 mm 3 mps 723 mmHg 46%
20:00 +28°C° 0 mm 2 mps 723 mmHg 48%
21:00 +26°C° 0 mm 2 mps 723 mmHg 51%
22:00 +25°C° 0 mm 2 mps 723 mmHg 52%
23:00 +24°C° 0 mm 2 mps 722 mmHg 53%

9 August, Sunday

Time Temperature Precipitation Wind Pressure Humidity
00:00 +24°C° 0 mm 2 mps 722 mmHg 54%
01:00 +23°C° 0 mm 2 mps 722 mmHg 55%
02:00 +23°C° 0 mm 2 mps 722 mmHg 57%
03:00 +21°C° 0 mm 3 mps 721 mmHg 58%
04:00 +21°C° 0 mm 3 mps 721 mmHg 60%
05:00 +21°C° 0 mm 3 mps 722 mmHg 62%
06:00 +21°C° 0 mm 3 mps 722 mmHg 65%
07:00 +22°C° 0 mm 4 mps 722 mmHg 60%
08:00 +25°C° 0 mm 4 mps 722 mmHg 55%
09:00 +27°C° 0 mm 5 mps 722 mmHg 51%
10:00 +28°C° 0 mm 5 mps 722 mmHg 48%
11:00 +29°C° 0 mm 6 mps 722 mmHg 44%
12:00 +32°C° 0 mm 6 mps 722 mmHg 41%
13:00 +32°C° 0 mm 6 mps 722 mmHg 40%
14:00 +32°C° 0 mm 6 mps 722 mmHg 39%
15:00 +32°C° 0 mm 5 mps 721 mmHg 37%
16:00 +32°C° 0 mm 5 mps 721 mmHg 39%
17:00 +30°C° 0 mm 4 mps 721 mmHg 41%
18:00 +29°C° 0 mm 4 mps 721 mmHg 43%
19:00 +28°C° 0 mm 4 mps 722 mmHg 41%
20:00 +26°C° 0 mm 4 mps 722 mmHg 39%
21:00 +25°C° 0 mm 4 mps 722 mmHg 37%
22:00 +23°C° 0 mm 4 mps 722 mmHg 36%
23:00 +23°C° 0 mm 4 mps 722 mmHg 34%

10 August, Monday

Time Temperature Precipitation Wind Pressure Humidity
00:00 +22°C° 0 mm 4 mps 722 mmHg 33%
01:00 +21°C° 0 mm 4 mps 722 mmHg 34%
02:00 +21°C° 0 mm 4 mps 722 mmHg 34%
03:00 +20°C° 0 mm 4 mps 722 mmHg 34%
04:00 +20°C° 0 mm 4 mps 722 mmHg 35%
05:00 +20°C° 0 mm 4 mps 722 mmHg 37%
06:00 +20°C° 0 mm 4 mps 722 mmHg 38%
07:00 +21°C° 0 mm 4 mps 722 mmHg 37%
08:00 +22°C° 0 mm 5 mps 722 mmHg 37%
09:00 +23°C° 0 mm 5 mps 722 mmHg 37%
10:00 +25°C° 0 mm 5 mps 723 mmHg 36%
11:00 +27°C° 0 mm 5 mps 723 mmHg 34%
12:00 +28°C° 0 mm 5 mps 723 mmHg 33%
13:00 +28°C° 0 mm 5 mps 723 mmHg 32%
14:00 +29°C° 0 mm 5 mps 723 mmHg 31%
15:00 +29°C° 0 mm 4 mps 722 mmHg 30%
16:00 +29°C° 0 mm 4 mps 723 mmHg 32%
17:00 +28°C° 0 mm 3 mps 723 mmHg 35%
18:00 +28°C° 0 mm 2 mps 723 mmHg 37%
19:00 +26°C° 0 mm 2 mps 723 mmHg 39%
20:00 +24°C° 0 mm 2 mps 723 mmHg 41%
21:00 +23°C° 0 mm 2 mps 723 mmHg 42%
22:00 +21°C° 0 mm 2 mps 723 mmHg 43%
23:00 +20°C° 0 mm 2 mps 723 mmHg 44%
Show more